Location: ?nandapuram
(16.5396°N, 81.1430°E)
Time: 11:50:14
(UTC+00:00)

Milstar 3 - Pass Details

Date: 14 April 2026
Orbit: 1097 x 5148 km, 28.2° (Epoch: 20 May)

Event Time Altitude Azimuth Distance (km) Brightness Sun altitude
Rises 14:02:43 0° 215° (SW) 3,927 5.9 -17.6°
Reaches altitude 10° 14:05:27 10° 204° (SSW) 3,077 5.2 -18.3°
Maximum altitude 14:11:51 33° 141° (SE) 2,260 3.9 -19.7°
Enters shadow 14:14:18 29° 114° (ESE) 2,626 4.1 -20.3°
